Date Time,Air Temp,Sky Temp,Clarity,Light Level,Rain Sensor,Readings
2010-11-23 00:01:25,17.9,-19.7,37.6,1.0,2.3,111
2010-11-23 00:06:25,17.9,-19.1,37.1,0.9,2.3,112
2010-11-23 00:11:26,17.9,-18.7,36.7,0.8,2.3,111
2010-11-23 00:16:26,17.9,-14.2,32.1,0.8,2.3,112
2010-11-23 00:21:26,18.0,-15.4,33.4,0.7,2.3,112
2010-11-23 00:26:26,18.1,-10.8,28.9,0.8,2.3,112
2010-11-23 00:31:26,18.1,-11.3,29.5,0.8,2.3,111
2010-11-23 00:36:26,18.2,-9.0,27.2,0.8,2.3,112
2010-11-23 00:41:26,18.3,-7.6,25.8,0.7,2.3,112
2010-11-23 00:46:26,18.6,-7.0,25.6,0.8,2.3,111
2010-11-23 00:51:26,18.3,-11.7,30.0,0.7,2.3,112
2010-11-23 00:56:26,18.3,-12.8,31.2,0.8,2.3,112
2010-11-23 01:01:26,18.3,-11.1,29.3,0.7,2.3,111
2010-11-23 01:06:26,18.2,-10.0,28.2,0.8,2.3,112
2010-11-23 01:11:26,18.2,-12.3,30.5,1.0,2.3,111
2010-11-23 01:16:26,18.2,-10.1,28.3,1.0,2.3,112
2010-11-23 01:21:26,18.2,-8.1,26.3,1.0,2.3,112
2010-11-23 01:26:26,18.2,-8.6,26.8,1.1,2.3,112
2010-11-23 01:31:26,18.1,-9.8,27.9,1.1,2.3,111
2010-11-23 01:36:26,18.1,-7.2,25.4,1.0,2.3,112
2010-11-23 01:41:26,18.2,-8.9,27.1,1.1,2.3,112
2010-11-23 01:46:26,18.2,-5.0,23.2,1.0,2.3,111
2010-11-23 01:51:26,18.3,-2.6,20.9,0.8,2.3,112
2010-11-23 01:56:26,17.7,-1.7,19.4,0.7,2.3,111
2010-11-23 02:01:26,14.9,-2.0,16.9,0.7,2.3,112
2010-11-23 02:06:26,14.0,-2.6,16.6,0.8,2.3,112
2010-11-23 02:11:26,13.7,-2.8,16.5,0.8,2.3,111
2010-11-23 02:16:26,13.5,-3.0,16.5,0.7,2.3,112
2010-11-23 02:21:26,13.5,-2.7,16.1,0.8,2.3,112
2010-11-23 02:26:26,13.4,-1.4,14.8,0.6,2.3,111
2010-11-23 02:31:26,13.4,-1.6,15.0,0.6,2.3,112
2010-11-23 02:36:26,13.4,-2.4,15.8,0.7,2.3,112
2010-11-23 02:41:26,13.4,-3.5,16.9,0.8,2.3,111
2010-11-23 02:46:26,14.2,-6.7,20.9,0.9,2.3,112
2010-11-23 02:51:26,16.9,-10.1,26.9,1.1,2.3,111
2010-11-23 02:56:26,17.6,-12.2,29.8,1.0,2.3,112
2010-11-23 03:01:26,17.8,-15.0,32.8,1.2,2.3,111
2010-11-23 03:06:26,17.9,-16.8,34.7,1.2,2.3,112
2010-11-23 03:11:26,17.8,-18.7,36.5,1.1,2.3,111
2010-11-23 03:16:26,17.8,-16.4,34.2,1.0,2.3,112
2010-11-23 03:21:26,17.8,-14.9,32.7,1.0,2.3,111
2010-11-23 03:26:26,17.5,-9.8,27.3,0.9,2.3,112
2010-11-23 03:31:26,17.9,-8.9,26.8,0.9,2.3,111
2010-11-23 03:36:26,18.0,-8.2,26.2,0.9,2.3,112
2010-11-23 03:41:26,16.5,-2.1,18.6,0.7,2.3,111
2010-11-23 03:46:26,14.3,-2.5,16.8,0.7,2.3,112
2010-11-23 03:51:26,13.7,-1.8,15.5,0.6,2.3,112
2010-11-23 03:56:26,13.6,-1.7,15.3,0.6,2.3,111
2010-11-23 04:01:26,13.5,-1.8,15.3,0.6,2.3,112
2010-11-23 04:06:26,14.0,-5.5,19.5,0.7,2.3,111
2010-11-23 04:11:26,16.7,-10.6,27.4,0.8,2.3,112
2010-11-23 04:16:26,17.7,-13.0,30.7,0.8,2.3,111
2010-11-23 04:21:26,17.9,-10.6,28.5,0.7,2.3,112
2010-11-23 04:26:26,18.0,-7.8,25.8,0.6,2.3,112
2010-11-23 04:31:26,18.0,-7.7,25.8,0.6,2.3,112
2010-11-23 04:36:26,18.1,-4.4,22.5,0.6,2.3,112
2010-11-23 04:41:26,18.1,-2.9,21.0,0.5,2.3,111
2010-11-23 04:46:26,18.1,-3.7,21.8,0.5,2.3,112
2010-11-23 04:51:26,18.3,-5.7,23.9,0.6,2.3,111
2010-11-23 04:56:26,17.4,-1.9,19.2,0.5,2.3,111
2010-11-23 05:01:26,14.6,-1.0,15.6,0.4,2.3,112
2010-11-23 05:06:26,13.8,-1.3,15.1,0.4,2.3,112
2010-11-23 05:11:26,13.4,-1.6,15.0,0.4,2.3,111
2010-11-23 05:16:26,13.2,-1.8,15.1,0.4,2.3,112
2010-11-23 05:21:26,13.1,-1.7,14.8,0.4,2.4,111
2010-11-23 05:26:26,13.1,-1.4,14.5,0.4,2.4,112
2010-11-23 05:31:26,13.1,-2.1,15.2,0.4,2.4,111
2010-11-23 05:36:26,13.1,-2.3,15.4,0.4,2.4,112
2010-11-23 05:41:26,13.2,-4.3,17.5,0.4,2.3,112
2010-11-23 05:46:26,13.1,-1.5,14.6,0.3,2.3,111
2010-11-23 05:51:26,13.1,-1.8,14.9,0.3,2.4,112
2010-11-23 05:56:26,13.1,-1.3,14.4,0.3,2.4,111
2010-11-23 06:01:26,13.1,-1.3,14.4,0.3,2.4,112
2010-11-23 06:06:26,13.1,-1.0,14.1,0.3,2.4,112
2010-11-23 06:11:26,13.1,-1.0,14.2,0.3,2.4,111
2010-11-23 06:16:26,13.2,-1.2,14.4,0.3,2.4,112
2010-11-23 06:21:26,13.2,-2.1,15.2,0.4,2.4,112
2010-11-23 06:26:26,13.1,-2.1,15.3,0.5,2.4,112
2010-11-23 06:31:26,13.2,-2.0,15.2,0.6,2.4,111
2010-11-23 06:36:26,13.2,-1.0,14.2,0.5,2.4,112
2010-11-23 06:41:26,13.2,-0.3,13.5,0.7,2.4,112
2010-11-23 06:46:26,13.3,0.2,13.1,1.1,2.4,111
2010-11-23 06:51:26,13.3,0.6,12.7,1.8,2.4,112
2010-11-23 06:56:26,13.4,0.5,12.8,3.4,2.4,111
2010-11-23 07:01:26,13.4,-0.0,13.4,6.5,2.4,111
2010-11-23 07:06:26,13.4,0.5,12.9,9.4,2.4,112
2010-11-23 07:11:26,13.5,1.0,12.6,14.1,2.4,111
2010-11-23 07:16:26,13.7,1.3,12.4,19.7,2.3,111
2010-11-23 07:21:26,13.6,1.2,12.4,23.4,2.3,111
2010-11-23 07:26:26,13.6,1.1,12.6,25.9,2.3,111
2010-11-23 07:31:26,13.6,-0.0,13.6,28.9,2.3,111
2010-11-23 07:36:26,13.6,-0.4,14.0,29.9,2.3,112
2010-11-23 07:41:26,13.5,-0.4,14.0,30.6,2.3,112
2010-11-23 07:46:26,13.5,-2.4,15.9,31.2,2.3,112
2010-11-23 07:51:26,13.7,-5.2,19.0,31.4,2.3,111
2010-11-23 07:56:26,16.1,-6.1,22.2,31.6,2.3,112
2010-11-23 08:01:26,17.6,-7.4,25.0,31.7,2.3,111
2010-11-23 08:06:26,18.2,-10.0,28.2,31.9,2.3,112
2010-11-23 08:11:26,18.3,-10.4,28.7,32.0,2.3,112
2010-11-23 08:16:26,18.4,-9.4,27.9,32.0,2.3,112
2010-11-23 08:21:26,18.5,-8.0,26.5,32.1,2.3,112
2010-11-23 08:26:26,18.7,-9.6,28.3,32.1,2.4,112
2010-11-23 08:31:26,18.8,-11.2,30.0,32.2,2.3,111
2010-11-23 08:36:26,18.7,-12.8,31.5,32.2,2.3,111
2010-11-23 08:41:26,18.7,-16.0,34.7,32.2,2.3,112
2010-11-23 08:46:26,18.5,-17.9,36.4,32.2,2.4,112
2010-11-23 08:51:26,18.4,-18.1,36.5,32.2,2.4,111
2010-11-23 08:56:26,18.3,-18.6,36.9,32.2,2.3,112
2010-11-23 09:01:26,18.2,-17.6,35.8,32.3,2.3,111
2010-11-23 09:06:26,18.3,-16.0,34.2,32.3,2.3,112
2010-11-23 09:11:26,18.5,-13.6,32.1,32.4,2.3,111
2010-11-23 09:16:26,18.9,-11.8,30.6,32.4,2.3,112
2010-11-23 09:21:26,19.2,-12.1,31.2,32.4,2.3,111
2010-11-23 09:26:26,19.3,-10.6,29.8,32.5,2.2,112
2010-11-23 09:31:26,19.5,-10.4,29.9,32.5,2.3,112
2010-11-23 09:36:26,19.5,-11.4,30.9,32.5,2.3,111
2010-11-23 09:41:26,19.4,-12.6,32.1,32.5,2.3,112
2010-11-23 09:46:26,19.4,-13.1,32.5,32.5,2.3,112
2010-11-23 09:51:26,19.3,-12.2,31.5,32.5,2.3,111
2010-11-23 09:56:26,19.3,-10.1,29.4,32.5,2.3,112
2010-11-23 10:01:26,19.0,-8.2,27.2,32.5,2.3,111
2010-11-23 10:06:26,19.4,-8.8,28.2,32.5,2.3,112
2010-11-23 10:11:26,19.5,-11.3,30.8,32.4,2.3,112
2010-11-23 10:16:26,19.5,-12.0,31.5,32.5,2.3,111
2010-11-23 10:21:26,19.5,-10.2,29.7,32.5,2.3,112
2010-11-23 10:26:26,19.5,-11.9,31.4,32.5,2.3,111
2010-11-23 10:31:26,19.5,-13.9,33.5,32.5,2.3,112
2010-11-23 10:36:26,19.5,-17.2,36.7,32.5,2.3,111
2010-11-23 10:41:26,19.4,-17.4,36.8,32.5,2.3,112
2010-11-23 10:46:26,19.5,-16.1,35.5,32.5,2.3,112
2010-11-23 10:51:26,19.7,-11.4,31.0,32.5,2.3,111
2010-11-23 10:56:26,20.0,-9.8,29.8,32.5,2.4,112
2010-11-23 11:01:26,20.3,-8.9,29.2,32.5,2.3,111
2010-11-23 11:06:26,20.3,-9.6,29.9,32.5,2.3,112
2010-11-23 11:11:26,20.3,-9.0,29.3,32.5,2.3,111
2010-11-23 11:16:26,20.2,-10.2,30.4,32.5,2.3,112
2010-11-23 11:21:26,20.1,-10.4,30.5,32.5,2.3,112
2010-11-23 11:26:26,20.0,-9.9,29.9,32.5,2.4,111
2010-11-23 11:31:26,20.0,-11.8,31.8,32.5,2.3,112
2010-11-23 11:36:26,19.9,-14.5,34.4,32.5,2.5,112
2010-11-23 11:41:26,19.9,-18.5,38.4,32.5,2.5,111
2010-11-23 11:46:26,19.7,-19.9,39.6,32.5,2.4,112
2010-11-23 11:51:26,19.7,-18.2,37.9,32.6,2.5,111
2010-11-23 11:56:26,20.6,-14.3,34.9,32.6,2.3,112
2010-11-23 12:01:26,21.5,-13.9,35.4,32.6,2.3,111
2010-11-23 12:06:26,21.7,-13.4,35.1,32.6,2.1,112
2010-11-23 12:11:26,22.2,-9.4,31.6,32.6,2.0,111
2010-11-23 12:16:26,21.8,-8.7,30.6,32.5,1.9,112
2010-11-23 12:21:26,20.5,-16.9,37.5,32.5,2.1,112
2010-11-23 12:26:26,21.1,-15.8,36.8,32.6,2.2,111
2010-11-23 12:31:26,22.1,-16.5,38.6,32.6,2.1,112
2010-11-23 12:36:26,22.8,-17.0,39.9,32.6,2.3,111
2010-11-23 12:41:26,23.1,-9.7,32.9,32.6,2.4,112
2010-11-23 12:46:26,23.0,-6.4,29.4,32.6,2.4,112
2010-11-23 12:51:26,22.8,-2.9,25.7,32.5,2.4,111
2010-11-23 12:56:26,22.1,-5.1,27.2,32.5,2.3,112
2010-11-23 13:01:26,21.6,-5.4,27.0,32.5,2.0,112
2010-11-23 13:06:26,21.2,-4.9,26.1,32.5,1.9,111
2010-11-23 13:11:26,20.9,-9.2,30.1,32.5,2.0,112
2010-11-23 13:16:26,20.8,-10.1,30.9,32.5,2.2,112
2010-11-23 13:21:26,20.6,-12.7,33.2,32.5,2.3,111
2010-11-23 13:26:26,20.4,-14.4,34.8,32.5,2.3,112
2010-11-23 13:31:26,20.3,-16.1,36.4,32.5,2.3,111
2010-11-23 13:36:26,20.3,-12.7,33.0,32.5,2.3,111
2010-11-23 13:41:26,20.5,-11.5,31.9,32.5,2.3,112
2010-11-23 13:46:26,21.2,-8.6,29.8,32.6,2.1,112
2010-11-23 13:51:26,22.2,-11.7,34.0,32.6,2.2,111
2010-11-23 13:56:26,22.4,-8.7,31.1,32.6,2.3,112
2010-11-23 14:01:26,22.0,-7.4,29.4,32.5,2.3,112
2010-11-23 14:06:26,21.2,-7.0,28.3,32.5,1.9,111
2010-11-23 14:11:26,20.8,-13.0,33.8,32.5,2.1,112
2010-11-23 14:16:26,20.6,-13.4,34.1,32.5,2.3,111
2010-11-23 14:21:26,20.5,-16.0,36.4,32.5,2.3,112
2010-11-23 14:26:26,20.3,-17.3,37.6,32.5,2.3,111
2010-11-23 14:31:26,20.1,-17.8,37.9,32.5,2.3,112
2010-11-23 14:36:26,20.1,-16.0,36.1,32.5,2.3,111
2010-11-23 14:41:26,20.1,-17.3,37.4,32.5,2.3,112
2010-11-23 14:46:26,20.6,-16.6,37.2,32.6,2.3,111
2010-11-23 14:51:26,21.2,-18.5,39.7,32.6,2.3,112
2010-11-23 14:56:26,21.5,-19.2,40.6,32.6,2.3,112
2010-11-23 15:01:26,21.6,-20.3,41.9,32.5,2.2,111
2010-11-23 15:06:26,21.3,-19.1,40.4,32.5,2.3,111
2010-11-23 15:11:26,20.8,-19.2,40.0,32.5,2.3,112
2010-11-23 15:16:26,20.2,-20.4,40.6,32.4,2.3,112
2010-11-23 15:21:27,19.5,-19.8,39.3,32.4,2.4,111
2010-11-23 15:26:27,19.5,-17.5,37.0,32.3,2.4,112
2010-11-23 15:31:27,19.3,-19.2,38.5,32.3,2.3,111
2010-11-23 15:36:27,19.1,-14.6,33.7,32.2,2.2,112
2010-11-23 15:41:27,19.1,-15.6,34.7,32.1,2.1,111
2010-11-23 15:46:27,19.1,-6.8,26.0,31.8,2.1,112
2010-11-23 15:51:27,19.2,-9.4,28.6,31.8,2.1,111
2010-11-23 15:56:27,19.2,-8.9,28.1,31.7,2.1,112
2010-11-23 16:01:27,19.2,-10.4,29.5,31.7,2.1,112
2010-11-23 16:06:27,19.2,-15.8,34.9,31.5,2.1,111
2010-11-23 16:11:27,19.0,-16.2,35.3,31.1,2.2,112
2010-11-23 16:16:27,18.9,-13.1,31.9,30.6,2.3,112
2010-11-23 16:21:27,18.7,-20.7,39.4,29.9,2.3,111
2010-11-23 16:26:27,18.6,-17.5,36.1,28.6,2.3,111
2010-11-23 16:31:27,18.6,-20.1,38.7,26.5,2.3,112
2010-11-23 16:36:27,18.5,-20.6,39.2,23.1,2.3,112
2010-11-23 16:41:27,18.5,-21.1,39.6,18.0,2.3,111
2010-11-23 16:46:27,18.3,-22.1,40.4,12.4,2.3,111
2010-11-23 16:51:27,17.9,-22.4,40.3,7.9,2.3,112
2010-11-23 16:56:27,18.1,-22.2,40.3,4.6,2.3,111
2010-11-23 17:01:27,18.0,-22.3,40.3,2.6,2.3,112
2010-11-23 17:06:27,17.9,-22.8,40.7,1.5,2.3,112
2010-11-23 17:11:27,17.8,-22.4,40.3,0.8,2.2,111
2010-11-23 17:16:27,17.8,-22.3,40.1,0.5,2.3,112
2010-11-23 17:21:27,17.8,-22.5,40.3,0.2,2.3,111
2010-11-23 17:26:27,17.8,-22.5,40.3,0.1,2.3,111
2010-11-23 17:31:27,17.7,-22.4,40.1,0.1,2.3,112
2010-11-23 17:36:27,17.7,-22.8,40.5,0.0,2.3,112
2010-11-23 17:41:27,17.7,-22.6,40.2,0.0,2.3,111
2010-11-23 17:46:27,17.6,-23.1,40.7,0.0,2.3,111
2010-11-23 17:51:27,17.6,-22.9,40.5,0.0,2.3,112
2010-11-23 17:56:27,17.6,-22.7,40.4,0.0,2.3,111
2010-11-23 18:01:27,17.5,-24.3,41.8,0.0,2.3,112
2010-11-23 18:06:27,17.4,-23.9,41.3,0.0,2.3,112
2010-11-23 18:11:27,17.2,-23.9,41.1,0.0,2.3,111
2010-11-23 18:16:27,17.0,-23.3,40.3,0.0,2.3,112
2010-11-23 18:21:27,16.9,-23.4,40.4,0.1,2.3,111
2010-11-23 18:26:27,16.9,-23.7,40.7,0.1,2.3,111
2010-11-23 18:31:27,16.9,-23.3,40.2,0.1,2.3,112
2010-11-23 18:36:27,16.9,-24.2,41.1,0.1,2.3,111
2010-11-23 18:41:27,16.9,-23.9,40.7,0.1,2.3,112
2010-11-23 18:46:27,16.9,-23.2,40.1,0.1,2.3,111
2010-11-23 18:51:27,16.9,-23.2,40.0,0.1,2.3,112
2010-11-23 18:56:27,16.9,-23.2,40.1,0.1,2.3,111
2010-11-23 19:01:27,16.9,-23.0,39.9,0.1,2.3,112
2010-11-23 19:06:27,16.9,-23.3,40.2,0.1,2.3,112
2010-11-23 19:11:27,16.9,-23.1,40.0,0.1,2.3,111
2010-11-23 19:16:27,16.9,-22.9,39.8,0.1,2.3,112
2010-11-23 19:21:27,16.9,-23.3,40.2,0.1,2.3,112
2010-11-23 19:26:27,16.8,-23.9,40.7,0.1,2.3,111
2010-11-23 19:31:27,16.8,-23.9,40.7,0.1,2.3,112
2010-11-23 19:36:27,16.8,-23.9,40.7,0.1,2.3,111
2010-11-23 19:41:27,16.8,-25.0,41.7,0.1,2.3,112
2010-11-23 19:46:27,16.7,-25.3,42.0,0.1,2.3,111
2010-11-23 19:51:27,16.5,-24.6,41.2,0.1,2.3,112
2010-11-23 19:56:27,16.6,-24.4,41.0,0.1,2.3,111
2010-11-23 20:01:27,16.6,-25.1,41.6,0.1,2.3,112
2010-11-23 20:06:27,16.4,-25.1,41.5,0.1,2.3,112
2010-11-23 20:11:27,16.4,-24.9,41.3,0.1,2.3,111
2010-11-23 20:16:27,16.3,-24.9,41.2,0.1,2.3,112
2010-11-23 20:21:27,16.3,-24.8,41.1,0.1,2.3,111
2010-11-23 20:26:27,16.3,-24.8,41.1,0.1,2.3,112
2010-11-23 20:31:27,16.3,-24.0,40.2,0.1,2.3,111
2010-11-23 20:36:27,16.3,-23.9,40.2,0.1,2.3,112
2010-11-23 20:41:27,16.2,-20.6,36.8,0.1,2.3,112
2010-11-23 20:46:27,16.2,-17.5,33.7,0.1,2.3,111
2010-11-23 20:51:27,16.4,-17.1,33.4,0.2,2.3,112
2010-11-23 20:56:27,16.5,-16.0,32.6,0.2,2.3,112
2010-11-23 21:01:27,16.7,-13.5,30.2,0.2,2.3,112
2010-11-23 21:06:27,16.8,-9.6,26.4,0.3,2.3,111
2010-11-23 21:11:27,16.9,-8.8,25.8,0.3,2.3,113
2010-11-23 21:16:27,17.1,-9.6,26.7,0.3,2.3,111
2010-11-23 21:21:27,17.2,-9.2,26.4,0.3,2.3,112
2010-11-23 21:26:27,17.3,-9.6,26.9,0.3,2.3,112
2010-11-23 21:31:27,17.3,-10.4,27.7,0.3,2.3,112
2010-11-23 21:36:27,17.3,-8.8,26.1,0.3,2.3,112
2010-11-23 21:41:27,17.3,-8.9,26.2,0.3,2.3,112
2010-11-23 21:46:27,17.3,-10.1,27.4,0.3,2.3,112
2010-11-23 21:51:27,17.2,-13.4,30.6,0.3,2.3,111
2010-11-23 21:56:27,17.1,-17.0,34.2,0.3,2.3,111
2010-11-23 22:01:27,17.0,-18.2,35.2,0.2,2.3,112
2010-11-23 22:06:27,17.0,-21.0,38.0,0.2,2.3,111
2010-11-23 22:11:27,16.9,-23.5,40.4,0.2,2.3,112
2010-11-23 22:16:27,16.8,-24.1,40.9,0.2,2.3,111
2010-11-23 22:21:27,16.8,-24.5,41.3,0.2,2.3,111
2010-11-23 22:26:27,16.6,-24.6,41.2,0.2,2.3,112
2010-11-23 22:31:27,16.4,-25.0,41.4,0.2,2.3,111
2010-11-23 22:36:27,16.3,-25.5,41.8,0.2,2.3,112
2010-11-23 22:41:27,16.1,-24.9,41.0,0.2,2.4,111
2010-11-23 22:46:27,16.1,-24.8,40.9,0.3,2.3,111
2010-11-23 22:51:27,16.1,-25.5,41.6,0.3,2.4,112
2010-11-23 22:56:27,16.1,-24.8,40.9,0.3,2.4,111
2010-11-23 23:01:27,16.1,-23.0,39.1,0.3,2.4,112
2010-11-23 23:06:27,16.1,-22.1,38.2,0.4,2.4,111
2010-11-23 23:11:27,15.8,-20.0,35.9,0.4,2.4,112
2010-11-23 23:16:27,16.3,-16.3,32.6,0.4,2.3,112
2010-11-23 23:21:27,16.5,-13.6,30.1,0.5,2.3,111
2010-11-23 23:26:27,16.7,-12.6,29.3,0.5,2.3,111
2010-11-23 23:31:27,16.6,-11.9,28.5,0.6,2.3,111
2010-11-23 23:36:27,16.2,-11.7,27.9,0.6,2.3,111
2010-11-23 23:41:27,16.1,-11.9,28.0,0.6,2.3,111
2010-11-23 23:46:27,16.2,-12.9,29.0,0.6,2.4,112
2010-11-23 23:51:27,16.3,-13.0,29.3,0.6,2.3,111
2010-11-23 23:56:27,16.4,-13.6,29.9,0.6,2.3,112
